Time,TemperatureF,DewpointF,PressureIn,WindDirection,WindDirectionDegrees,WindSpeedMPH,WindSpeedGustMPH,Humidity,HourlyPrecipIn,Conditions,Clouds,dailyrainin,SoftwareType,DateUTC
2013-10-31 00:14:00,55.0,51.0,30.18,ENE,58,0.0,3.0,87,0.00,,,0.00,,2013-10-31 04:14:00,
2013-10-31 00:24:00,55.0,51.0,30.18,ENE,58,0.0,1.0,87,0.00,,,0.00,,2013-10-31 04:24:00,
2013-10-31 00:43:00,55.0,52.0,30.18,ENE,72,0.0,2.0,88,0.00,,,0.00,,2013-10-31 04:43:00,
2013-10-31 00:54:00,55.0,52.0,30.18,ENE,72,0.0,1.0,88,0.00,,,0.00,,2013-10-31 04:54:00,
2013-10-31 01:13:00,54.0,51.0,30.17,ENE,72,0.0,1.0,89,0.00,,,0.00,,2013-10-31 05:13:00,
2013-10-31 01:23:00,54.0,51.0,30.17,ENE,72,0.0,1.0,90,0.00,,,0.00,,2013-10-31 05:23:00,
2013-10-31 01:52:00,54.0,51.0,30.17,ENE,72,0.0,2.0,90,0.00,,,0.00,,2013-10-31 05:52:00,
2013-10-31 02:12:00,54.0,51.0,30.18,ENE,72,0.0,2.0,90,0.00,,,0.00,,2013-10-31 06:12:00,
2013-10-31 02:22:00,53.0,50.0,30.17,ENE,67,1.0,4.0,90,0.00,,,0.00,,2013-10-31 06:22:00,
2013-10-31 02:42:00,54.0,51.0,30.17,ENE,67,0.0,2.0,90,0.00,,,0.00,,2013-10-31 06:42:00,
2013-10-31 02:53:00,54.0,51.0,30.17,ENE,67,1.0,3.0,90,0.00,,,0.00,,2013-10-31 06:53:00,
2013-10-31 03:12:00,54.0,51.0,30.17,ENE,67,0.0,0.0,91,0.00,,,0.00,,2013-10-31 07:12:00,
2013-10-31 03:21:00,54.0,51.0,30.17,ENE,67,0.0,2.0,90,0.00,,,0.00,,2013-10-31 07:21:00,
2013-10-31 03:52:00,55.0,53.0,30.15,ENE,67,0.0,1.0,92,0.00,,,0.00,,2013-10-31 07:52:00,
2013-10-31 04:12:00,55.0,52.0,30.15,North,3,0.0,0.0,90,0.00,,,0.00,,2013-10-31 08:12:00,
2013-10-31 04:22:00,55.0,52.0,30.15,North,3,0.0,1.0,89,0.00,,,0.00,,2013-10-31 08:22:00,
2013-10-31 04:42:00,55.0,52.0,30.14,North,3,0.0,0.0,88,0.00,,,0.00,,2013-10-31 08:42:00,
2013-10-31 04:52:00,55.0,51.0,30.14,North,3,0.0,0.0,87,0.00,,,0.00,,2013-10-31 08:52:00,
2013-10-31 05:22:00,56.0,52.0,30.14,SE,128,0.0,1.0,87,0.00,,,0.00,,2013-10-31 09:22:00,
2013-10-31 05:43:00,56.0,51.0,30.13,SW,228,0.0,5.0,84,0.00,,,0.00,,2013-10-31 09:43:00,
2013-10-31 05:53:00,57.0,52.0,30.13,SW,228,0.0,0.0,83,0.00,,,0.00,,2013-10-31 09:53:00,
2013-10-31 06:13:00,57.0,52.0,30.13,SW,236,1.0,5.0,82,0.00,,,0.00,,2013-10-31 10:13:00,
2013-10-31 06:23:00,57.0,51.0,30.13,SW,236,0.0,1.0,81,0.00,,,0.00,,2013-10-31 10:23:00,
2013-10-31 06:42:00,57.0,51.0,30.13,SW,236,0.0,1.0,81,0.00,,,0.00,,2013-10-31 10:42:00,
2013-10-31 06:53:00,57.0,51.0,30.13,WSW,243,0.0,3.0,81,0.00,,,0.00,,2013-10-31 10:53:00,
2013-10-31 07:12:00,57.0,51.0,30.13,WSW,243,0.0,2.0,81,0.00,,,0.00,,2013-10-31 11:12:00,
2013-10-31 07:22:00,57.0,51.0,30.13,WSW,243,0.0,2.0,81,0.00,,,0.00,,2013-10-31 11:22:00,
2013-10-31 07:42:00,57.0,51.0,30.13,WSW,243,0.0,0.0,81,0.00,,,0.00,,2013-10-31 11:42:00,
2013-10-31 07:52:00,57.0,51.0,30.12,WSW,243,0.0,1.0,81,0.00,,,0.00,,2013-10-31 11:52:00,
2013-10-31 08:12:00,57.0,51.0,30.14,WSW,242,2.0,4.0,81,0.00,,,0.00,,2013-10-31 12:12:00,
2013-10-31 08:22:00,57.0,51.0,30.14,SW,232,3.0,5.0,81,0.00,,,0.00,,2013-10-31 12:22:00,
2013-10-31 08:52:00,57.0,51.0,30.14,WSW,238,1.0,7.0,81,0.00,,,0.00,,2013-10-31 12:52:00,
2013-10-31 09:12:00,57.0,51.0,30.14,WSW,242,1.0,4.0,81,0.00,,,0.00,,2013-10-31 13:12:00,
2013-10-31 09:22:00,57.0,51.0,30.13,WSW,242,0.0,4.0,81,0.00,,,0.00,,2013-10-31 13:22:00,
2013-10-31 09:42:00,58.0,53.0,30.13,WSW,255,1.0,4.0,82,0.00,,,0.00,,2013-10-31 13:42:00,
2013-10-31 09:52:00,58.0,53.0,30.13,SW,235,1.0,3.0,82,0.00,,,0.00,,2013-10-31 13:52:00,
2013-10-31 10:11:00,58.0,52.0,30.13,West,262,0.0,4.0,79,0.00,,,0.00,,2013-10-31 14:11:00,
2013-10-31 10:22:00,59.0,53.0,30.12,West,262,0.0,2.0,80,0.00,,,0.00,,2013-10-31 14:22:00,
2013-10-31 10:52:00,59.0,52.0,30.11,West,272,0.0,3.0,79,0.00,,,0.00,,2013-10-31 14:52:00,
2013-10-31 11:11:00,59.0,52.0,30.11,WSW,248,2.0,3.0,77,0.00,,,0.00,,2013-10-31 15:11:00,
2013-10-31 12:23:00,60.0,51.0,30.09,WNW,298,2.0,9.0,72,0.00,,,0.00,,2013-10-31 16:23:00,
2013-10-31 12:53:00,60.0,51.0,30.08,NW,312,0.0,7.0,73,0.00,,,0.00,,2013-10-31 16:53:00,
2013-10-31 13:22:00,60.0,52.0,30.07,SW,225,1.0,4.0,75,0.00,,,0.00,,2013-10-31 17:22:00,
2013-10-31 13:52:00,61.0,52.0,30.06,WSW,239,0.0,4.0,72,0.00,,,0.00,,2013-10-31 17:52:00,
2013-10-31 14:22:00,61.0,52.0,30.04,WSW,239,0.0,3.0,71,0.00,,,0.00,,2013-10-31 18:22:00,
2013-10-31 14:52:00,61.0,53.0,30.03,SW,228,0.0,5.0,74,0.00,,,0.00,,2013-10-31 18:52:00,
2013-10-31 15:22:00,61.0,53.0,30.02,West,278,0.0,2.0,76,0.00,,,0.00,,2013-10-31 19:22:00,
2013-10-31 15:52:00,60.0,53.0,29.99,WSW,239,0.0,2.0,77,0.00,,,0.00,,2013-10-31 19:52:00,
2013-10-31 16:22:00,60.0,53.0,30.00,WSW,239,0.0,2.0,78,0.00,,,0.00,,2013-10-31 20:22:00,
2013-10-31 16:52:00,62.0,55.0,29.99,West,261,0.0,4.0,77,0.00,,,0.00,,2013-10-31 20:52:00,
2013-10-31 17:22:00,62.0,55.0,29.98,SW,233,0.0,4.0,77,0.00,,,0.00,,2013-10-31 21:22:00,
2013-10-31 17:44:00,61.0,54.0,29.98,SW,233,1.0,2.0,78,0.00,,,0.00,,2013-10-31 21:44:00,
2013-10-31 17:54:00,61.0,54.0,29.98,SW,233,1.0,3.0,79,0.00,,,0.00,,2013-10-31 21:54:00,
2013-10-31 18:14:00,61.0,55.0,29.96,WSW,239,0.0,5.0,80,0.00,,,0.00,,2013-10-31 22:14:00,
2013-10-31 18:24:00,61.0,55.0,29.96,WSW,239,0.0,1.0,81,0.00,,,0.00,,2013-10-31 22:24:00,
2013-10-31 18:53:00,61.0,55.0,29.96,SW,219,0.0,6.0,81,0.00,,,0.00,,2013-10-31 22:53:00,
2013-10-31 19:22:00,61.0,55.0,29.96,South,188,0.0,1.0,80,0.00,,,0.00,,2013-10-31 23:22:00,
2013-10-31 19:53:00,61.0,55.0,29.96,ESE,111,0.0,3.0,80,0.00,,,0.00,,2013-10-31 23:53:00,
2013-10-31 20:21:00,61.0,55.0,29.96,South,186,0.0,1.0,81,0.00,,,0.00,,2013-11-01 00:21:00,
2013-10-31 20:52:00,61.0,55.0,29.95,West,262,1.0,4.0,81,0.00,,,0.00,,2013-11-01 00:52:00,
2013-10-31 21:22:00,62.0,56.0,29.94,SW,236,0.0,10.0,80,0.00,,,0.00,,2013-11-01 01:22:00,
2013-10-31 21:52:00,62.0,55.0,29.93,WSW,240,1.0,8.0,79,0.00,,,0.00,,2013-11-01 01:52:00,
2013-10-31 22:22:00,62.0,56.0,29.93,SW,216,0.0,7.0,82,0.00,,,0.00,,2013-11-01 02:22:00,
2013-10-31 22:52:00,61.0,56.0,29.91,WNW,286,0.0,2.0,85,0.00,,,0.00,,2013-11-01 02:52:00,
2013-10-31 23:22:00,61.0,57.0,29.91,WSW,248,2.0,6.0,87,0.00,,,0.00,,2013-11-01 03:22:00,
2013-10-31 23:54:00,60.0,57.0,29.90,WNW,299,1.0,4.0,89,0.01,,,0.01,,2013-11-01 03:54:00,